Regional Weather Roundup
Issued by NWS

Home | Current Version | Previous Version | Graphics & Text | Print | Product List | Glossary On
Versions: 1 2 3 4 5 6 7 8 9 10 11 12 13 14 15 16 17 18 19 20 21 22 23 24 25 26 27 28 29 30 31 32 33 34 35 36 37 38 39 40 41 42 43 44 45 46 47 48 49 50
000
ASUS43 KFSD 261610
RWRSD

WEATHER ROUNDUP FOR SOUTH DAKOTA
NATIONAL WEATHER SERVICE SIOUX FALLS SD
1000 AM CST WED NOV 26 2014

NOTE: "FAIR" INDICATES FEW OR NO CLOUDS BELOW 12,000 FEET WITH NO
SIGNIFICANT WEATHER AND/OR OBSTRUCTIONS TO VISIBILITY.


SDZ001>005-009-010-012>017-261700-
NORTHWEST AND NORTH CENTRAL SOUTH DAKOTA

CITY           SKY/WX    TMP DP  RH WIND       PRES   REMARKS
BUFFALO          N/A     26  22  84 SW7       30.15R WCI  18
FAITH            N/A     22  17  81 CALM      30.26R
MOBRIDGE       CLOUDY    13   7  77 N6        30.29R WCI   4
$$

SDZ012>016-024>037-041>051-057-063-072>074-261700-
SOUTHWEST AND SOUTH CENTRAL SOUTH DAKOTA

CITY           SKY/WX    TMP DP  RH WIND       PRES   REMARKS
RAPID CTY ARPT CLOUDY    24  21  88 SE6       30.24R WCI  17
PIERRE         CLOUDY    20  13  74 NE9       30.32R WCI   9
CUSTER         CLOUDY    22  14  71 S5        30.11R WCI  16
ELLSWORTH AFB  CLOUDY    25  22  89 S5        30.23  FOG     WCI  19
PHILIP         CLOUDY    26  17  68 N5        30.30R WCI  20
PINE RIDGE     LGT SNOW  25  22  88 CALM      30.25R VSB 1
SPEARFISH      MIX PCPN  28  25  86 W10       30.20R WCI  19
WINNER         CLOUDY    22  16  78 N15       30.30R WCI   9
$$

SDZ004>011-016>023-039-040-261700-
NORTHEAST SOUTH DAKOTA

CITY           SKY/WX    TMP DP  RH WIND       PRES   REMARKS
ABERDEEN       CLOUDY     6  -2  69 N17       30.36R WCI -13
WATERTOWN      CLOUDY     9   4  80 N18       30.22R WCI -10
SISSETON         N/A      5   0  79 N24G31    30.31R WCI -17
$$

SDZ017-020-022-023-036>040-048>070-261700-
SOUTHEAST SOUTH DAKOTA

CITY           SKY/WX    TMP DP  RH WIND       PRES   REMARKS
SIOUX FALLS    PTSUNNY   21  16  81 N23G29    30.17R WCI   5
HURON          CLOUDY    10   4  76 N22G28    30.31R WCI -10
CHAMBERLAIN    PTSUNNY   17  10  75 N9        30.30R WCI   5
MITCHELL       LGT SNOW  14   9  80 N21       30.30R WCI  -4
YANKTON        CLOUDY    21  16  79 NW23G30   30.21R WCI   5
$$

ABBREVIATIONS USED IN REMARKS
   TC - TEMPERATURE IN CELSIUS
  WCI - WIND CHILL INDEX
   HX - HEAT INDEX
  VSB - VISIBILITY



USA.gov is the U.S. government's official web portal to all federal, state and local government web resources and services.